FENGYUN 1C DEB, 32130

Orbit data source: Space-Track

FENGYUN 1C DEB, 32130 is space debris in SSO originally from a launch on Mon, 10 May 1999 UTC launched from the Taiyaun Space Center, China (TSC). Fengyun 1C debris stems from the Chinese weather satellite Fengyun-1C, which was intentionally destroyed by a Chinese anti-satellite missile in 2007. This event dramatically increased the amount of space debris, with thousands of trackable fragments posing hazards to satellites and human spaceflight. The Fengyun 1C debris cloud has become a focal point in discussions about space sustainability and the need for international regulations to prevent the creation of new debris.

Loading next visibility...
Identifier
32130, 1999-025CRY
Orbit
SSO
Country
Flag of CNCN / PRC
Related business
Manufacturer
Unknown
Mission
Spacecraft
Bus & Motor
Unknown
Mass
Unknown
Launch date (UTC)
1999-05-10 (27 years ago)
Launch vehicle
Unknown
Launch site
Taiyaun Space Center, China (TSC)
Object type
Payload
Rocket body
Debris
Shape & HBR
Unknown shape, 0.1 m
Radar Cross Section
Small (<0.1 m²)

Expand to show TLE details & history
Last TLE update: 4 days ago

TLE from 4 days ago
0 FENGYUN 1C DEB
1 32130U 99025CRY 25346.28517161  .00001924  00000-0  63290-3 0  9994
2 32130  98.9038 152.7804 0082512 331.5241  28.1449 14.37545048962288
Epoch: 2025-12-12T06:50Z
TLE epoch observation values (Epoch: 2025-12-12T06:50:38.827Z)
Latitude
0.00002°
Longitude
-31.11037°
Altitude
717.67 km
Speed
7.524 km/s
True Right ascension
10h 11m 07s
True Declination
0° 00' 00"
Sunlit
Object was in daylight at epoch
Visualization orbit readout
Latitude
Unknown
Longitude
Unknown
Altitude
Unknown
Speed
Unknown
Apparent Right ascension
Unknown
Apparent Declination
Unknown
Sunlit
N/A
Visualization observer readout
Local Sidereal Time
17:59:01
Azimuth
Unknown
Elevation
Unknown
Doppler factor
Unknown
Orbital elements
Apogee altitude
822.695 km
Perigee altitude
704.836 km
Semi-major axis
7,141.903 km
Eccentricity
0.00825
Inclination
98.9038°
RAAN
152.7804°
Arg. of periapsis
331.5241°
True anomaly
28.59499°
Mean anomaly
28.1449°
Eccentric anomaly
28.36953°
Mean motion
3.59602 °/min
Orbital period
100.11 mins
BSTAR
0.0006329
Loading maneuver chart data...
Computing Atmospheric mass density...

Documentation

Showing up to 5 results
|